Istanbul, Turkey

10:22 AM +03 on July 26, 2017 (GMT +0300)
Ataturk

Weather History for LTBA - April, 2013

Change the Weather History Date:

Thursday, April 11, 2013

  Actual Average Record
Temperature  
Mean Temperature 54 °F -  
Max Temperature 62 °F 63 °F 78 °F (1998)
Min Temperature 47 °F 48 °F 38 °F (2015)
Degree Days  
Heating Degree Days 10    
Growing Degree Days 4 (Base 50)    
Moisture  
Dew Point 47 °F    
Average Humidity 76    
Maximum Humidity 100    
Minimum Humidity 56    
Precipitation  
Precipitation 0.00 in - - ()
Sea Level Pressure  
Sea Level Pressure 29.98 in    
Wind  
Wind Speed 4 mph ()    
Max Wind Speed 10 mph    
Max Gust Speed -    
Visibility 6.0 miles    
Events      
Averages and records for this station are not official NWS values.
T = Trace of Precipitation, MM = Missing Value Source: Averaged Metar Reports

Daily Weather History Graph

Daily Weather History Graph

Search for Another Location

Airport or City:

Trip Planner

Search our weather history database for the weather conditions in past years. The results will help you decide how hot, cold, wet, or windy it might be!

Date:

Astronomy

Apr. 11, 2013 Rise Set
Actual Time 6:32 AM EEST 7:40 PM EEST
Civil Twilight 6:03 AM EEST 8:08 PM EEST
Nautical Twilight 5:30 AM EEST 8:42 PM EEST
Astronomical Twilight 4:54 AM EEST 9:17 PM EEST
Moon 6:51 AM EEST (4/11) 8:56 PM EEST (4/11)
Length of Visible Light 14h 04m
Length of Day
13h 08m
New Moon, 1% of the Moon is Illuminated
Apr 11
New Moon
Apr 18
First Quarter
Apr 25
Full
May 2
Last Quarter
May 10
New

Hourly Weather History & Observations

Time (EEST) Temp. Dew Point Humidity Pressure Visibility Wind Dir Wind Speed Gust Speed Precip Events Conditions
12:20 AM 51.8 °F 46.4 °F 82% 29.95 in - ESE 3.5 mph - N/A   Clear
12:50 AM 51.8 °F 46.4 °F 82% 29.95 in - Variable 2.3 mph - N/A   Clear
1:20 AM 51.8 °F 44.6 °F 76% 29.95 in - ESE 3.5 mph - N/A   Clear
1:50 AM 51.8 °F 46.4 °F 82% 29.95 in - Variable 2.3 mph - N/A   Clear
2:50 AM 48.2 °F 46.4 °F 93% 29.95 in - Calm Calm - N/A   Clear
3:00 AM 49 °F 46 °F 87% 29.96 in 12 mi Calm Calm - -  
3:20 AM 48.2 °F 44.6 °F 87% 29.95 in 4.3 mi Calm Calm - N/A   Unknown
3:50 AM 48.2 °F 46.4 °F 93% 29.92 in 4.3 mi Calm Calm - N/A   Unknown
4:20 AM 48.2 °F 46.4 °F 93% 29.92 in 4.3 mi Calm Calm - N/A   Unknown
4:50 AM 48.2 °F 48.2 °F 100% 29.92 in 4.3 mi Calm Calm - N/A   Unknown
5:20 AM 48.2 °F 46.4 °F 93% 29.92 in 4.3 mi Variable 1.2 mph - N/A   Unknown
5:50 AM 48.2 °F 48.2 °F 100% 29.92 in 4.3 mi Variable 1.2 mph - N/A   Unknown
6:20 AM 50.0 °F 50.0 °F 100% 29.92 in 6.2 mi South 2.3 mph - N/A   Partly Cloudy
6:50 AM 50.0 °F 48.2 °F 94% 29.92 in 6.2 mi Variable 1.2 mph - N/A   Partly Cloudy
7:20 AM 51.8 °F 50.0 °F 94% 29.92 in 6.2 mi Variable 2.3 mph - N/A   Partly Cloudy
7:50 AM 51.8 °F 50.0 °F 94% 29.95 in 6.2 mi SSE 3.5 mph - N/A   Partly Cloudy
8:20 AM 53.6 °F 50.0 °F 88% 29.95 in - South 5.8 mph - N/A   Clear
8:50 AM 55.4 °F 51.8 °F 88% 29.95 in 6.2 mi South 5.8 mph - N/A   Scattered Clouds
9:00 AM 56 °F 53 °F 84% 29.95 in 6 mi South 5.8 mph - -   Scattered Clouds
9:20 AM 55.4 °F 50.0 °F 82% 29.95 in 6.2 mi SSW 9.2 mph - N/A   Scattered Clouds
9:50 AM 55.4 °F 48.2 °F 77% 29.95 in 6.2 mi SW 9.2 mph - N/A   Scattered Clouds
10:20 AM 57.2 °F 48.2 °F 72% 29.95 in 6.2 mi SW 10.4 mph - N/A   Mostly Cloudy
10:50 AM 55.4 °F 48.2 °F 77% 29.98 in 6.2 mi SW 8.1 mph - N/A   Mostly Cloudy
11:20 AM 55.4 °F 48.2 °F 77% 29.98 in 6.2 mi WSW 6.9 mph - N/A   Mostly Cloudy
11:50 AM 55.4 °F 48.2 °F 77% 29.98 in 6.2 mi WSW 9.2 mph - N/A   Mostly Cloudy
12:20 PM 57.2 °F 50.0 °F 77% 29.98 in 6.2 mi SW 9.2 mph - N/A   Mostly Cloudy
12:50 PM 57.2 °F 50.0 °F 77% 29.98 in 6.2 mi SW 9.2 mph - N/A   Mostly Cloudy
1:20 PM 55.4 °F 50.0 °F 82% 29.98 in 6.2 mi West 8.1 mph - N/A   Mostly Cloudy
1:50 PM 59.0 °F 48.2 °F 67% 30.01 in 6.2 mi NNE 10.4 mph - N/A   Mostly Cloudy
2:20 PM 59.0 °F 46.4 °F 63% 30.01 in 6.2 mi NNE 5.8 mph - N/A   Mostly Cloudy
2:50 PM 59.0 °F 46.4 °F 63% 30.01 in 6.2 mi North 8.1 mph - N/A   Mostly Cloudy
3:00 PM 58 °F 46 °F 56% 30.01 in 6 mi North 8.1 mph - -   Partly Cloudy
3:20 PM 59.0 °F 44.6 °F 59% 30.01 in 6.2 mi North 10.4 mph - N/A   Mostly Cloudy
3:50 PM 60.8 °F 46.4 °F 59% 30.01 in 6.2 mi Variable 6.9 mph - N/A   Scattered Clouds
4:20 PM 60.8 °F 46.4 °F 59% 29.98 in 6.2 mi NE 5.8 mph - N/A   Scattered Clouds
4:50 PM 59.0 °F 46.4 °F 63% 29.98 in 6.2 mi ESE 9.2 mph - N/A   Scattered Clouds
5:20 PM 59.0 °F 46.4 °F 63% 29.98 in 6.2 mi ESE 6.9 mph - N/A   Scattered Clouds
5:50 PM 59.0 °F 46.4 °F 63% 29.98 in 6.2 mi East 9.2 mph - N/A   Partly Cloudy
6:20 PM 59.0 °F 46.4 °F 63% 30.01 in 6.2 mi SE 8.1 mph - N/A   Partly Cloudy
6:50 PM 57.2 °F 44.6 °F 63% 30.01 in 6.2 mi SE 5.8 mph - N/A   Partly Cloudy
7:20 PM 57.2 °F 46.4 °F 67% 30.01 in - SE 5.8 mph - N/A   Clear
7:50 PM 57.2 °F 46.4 °F 67% 30.01 in - SSE 4.6 mph - N/A   Clear
8:20 PM 55.4 °F 48.2 °F 77% 30.01 in - ESE 3.5 mph - N/A   Clear
8:50 PM 57.2 °F 46.4 °F 67% 30.04 in - Variable 4.6 mph - N/A   Clear
9:00 PM 57 °F 47 °F 59% 30.04 in 6 mi East 4.6 mph - -  
9:20 PM 59.0 °F 46.4 °F 63% 30.04 in - Variable 4.6 mph - N/A   Clear
9:50 PM 57.2 °F 46.4 °F 67% 30.06 in - Variable 4.6 mph - N/A   Clear
10:20 PM 55.4 °F 44.6 °F 67% 30.06 in - East 4.6 mph - N/A   Clear
10:50 PM 55.4 °F 44.6 °F 67% 30.06 in - ENE 3.5 mph - N/A   Clear
11:20 PM 55.4 °F 44.6 °F 67% 30.06 in - Variable 2.3 mph - N/A   Clear
11:50 PM 55.4 °F 44.6 °F 67% 30.06 in - ENE 4.6 mph - N/A   Clear